TimeCST,TemperatureF,Dew PointF,Humidity,Sea Level PressureIn,VisibilityMPH,Wind Direction,Wind SpeedMPH,Gust SpeedMPH,PrecipitationIn,Events,Conditions,WindDirDegrees,DateUTC
12:53 AM,42.1,33.1,70,30.41,10.0,NE,9.2,-,N/A,,Clear,50,2012-11-14 06:53:00
1:53 AM,41.0,33.1,73,30.40,10.0,NE,8.1,-,N/A,,Clear,40,2012-11-14 07:53:00
2:53 AM,41.0,33.1,73,30.41,10.0,NNE,4.6,-,N/A,,Clear,20,2012-11-14 08:53:00
3:53 AM,41.0,34.0,76,30.41,10.0,North,4.6,-,N/A,,Clear,360,2012-11-14 09:53:00
4:53 AM,41.0,34.0,76,30.42,10.0,NNW,4.6,-,N/A,,Clear,340,2012-11-14 10:53:00
5:53 AM,41.0,34.0,76,30.42,10.0,North,5.8,-,N/A,,Partly Cloudy,10,2012-11-14 11:53:00
6:53 AM,41.0,34.0,76,30.43,10.0,North,3.5,-,0.00,,Partly Cloudy,360,2012-11-14 12:53:00
7:53 AM,41.0,35.1,79,30.45,10.0,NNW,6.9,-,N/A,,Clear,330,2012-11-14 13:53:00
8:53 AM,44.1,34.0,68,30.45,10.0,North,8.1,-,N/A,,Clear,10,2012-11-14 14:53:00
9:53 AM,46.9,33.1,59,30.45,10.0,North,8.1,-,N/A,,Clear,350,2012-11-14 15:53:00
10:53 AM,50.0,30.9,48,30.43,10.0,NNE,9.2,-,N/A,,Clear,20,2012-11-14 16:53:00
11:53 AM,52.0,30.0,43,30.42,10.0,North,9.2,-,N/A,,Clear,10,2012-11-14 17:53:00
12:53 PM,52.0,30.0,43,30.39,10.0,North,11.5,-,N/A,,Clear,350,2012-11-14 18:53:00
1:53 PM,53.1,27.0,37,30.38,10.0,NNE,10.4,17.3,N/A,,Clear,30,2012-11-14 19:53:00
2:53 PM,53.1,28.9,40,30.36,10.0,NNE,6.9,-,N/A,,Clear,20,2012-11-14 20:53:00
3:53 PM,52.0,30.0,43,30.35,10.0,North,6.9,-,N/A,,Clear,350,2012-11-14 21:53:00
4:53 PM,48.9,28.9,46,30.35,10.0,North,6.9,-,N/A,,Clear,360,2012-11-14 22:53:00
5:53 PM,45.0,30.9,58,30.35,10.0,North,3.5,-,N/A,,Clear,10,2012-11-14 23:53:00
6:53 PM,43.0,30.9,62,30.35,10.0,NNE,4.6,-,N/A,,Clear,20,2012-11-15 00:53:00
7:53 PM,43.0,30.0,60,30.35,10.0,NE,4.6,-,N/A,,Clear,40,2012-11-15 01:53:00
8:53 PM,39.9,32.0,73,30.35,10.0,Calm,Calm,-,N/A,,Clear,0,2012-11-15 02:53:00
9:53 PM,37.0,30.9,79,30.36,10.0,Calm,Calm,-,N/A,,Clear,0,2012-11-15 03:53:00
10:53 PM,36.0,32.0,86,30.35,10.0,Calm,Calm,-,N/A,,Clear,0,2012-11-15 04:53:00
11:53 PM,34.0,30.9,89,30.34,10.0,Calm,Calm,-,N/A,,Clear,0,2012-11-15 05:53:00